SCP
0 0 0 -0 -0 0 0 0 0 0 0 0 0 1 1 1 1 1 2 2 2 1 1 1 2 2 2 2 1 1 1 1 1 1 1 1 1 0 0 0 0 0 0 0
0 -0 -0 -0 -0 -0 0 0 0 0 0 0 0 1 1 1 1 1 1 1 1 1 1 1 1 1 2 1 1 1 1 1 1 1 1 1 1 0 0 0 0 0 0 0
0 0 0 0 0 -0 -0 0 0 0 0 0 0 1 1 1 1 1 1 1 1 1 1 1 1 1 1 1 1 1 1 1 1 1 1 1 1 0 0 0 0 0 0 0
0 0 0 0 0 -0 -0 0 0 0 0 0 0 0 0 0 0 0 0 0 1 1 1 0 0 0 1 1 1 1 1 1 1 1 1 1 1 0 0 0 0 0 0 0
0 0 0 0 0 0 -0 0 0 0 0 0 0 0 0 0 0 0 0 0 0 0 0 0 0 0 0 0 1 1 1 1 1 1 1 1 0 0 0 0 0 0 0 0
0 0 0 0 0 0 -0 -0 0 0 0 0 0 0 0 0 0 0 0 0 0 0 0 0 0 0 0 0 0 0 0 0 0 0 0 0 0 0 0 0 0 0 0 0
0 0 0 0 0 0 0 -0 -0 0 0 0 0 0 0 0 0 0 0 0 0 0 0 0 0 0 0 0 0 0 0 0 0 0 0 0 0 0 0 0 0 0 0 0
0 0 0 0 0 0 0 0 0 0 0 0 0 0 0 0 0 0 0 0 0 0 0 0 0 0 0 -0 -0 -0 0 0 0 0 0 0 0 0 0 0 0 0 0 0
0 0 0 0 0 0 0 0 0 0 0 0 0 0 0 0 0 0 0 0 0 0 0 0 0 0 0 -0 -0 -0 0 0 0 0 0 0 0 0 0 0 0 0 0 0
0 0 0 0 0 0 0 0 0 0 0 0 0 0 0 0 0 0 0 0 0 0 0 0 0 0 0 0 0 0 0 0 0 0 0 0 0 0 0 0 0 0 0 0
0 0 0 0 0 0 0 0 0 0 0 0 0 0 0 0 0 0 0 0 0 0 0 0 0 0 0 0 0 0 0 0 0 0 0 0 0 0 0 0 0 0 0 0
-0 0 0 0 0 0 0 0 0 0 0 0 0 0 0 0 0 0 0 0 0 0 0 0 0 0 0 0 0 0 0 0 0 0 0 0 0 0 0 0 0 0 0 0
0 0 0 0 0 0 0 0 0 0 0 0 0 0 0 0 0 0 0 0 0 0 0 0 0 0 0 0 0 0 0 0 0 0 0 0 0 0 0 0 0 0 0 0
0 0 0 0 0 0 0 0 0 0 0 0 0 0 0 0 0 0 0 0 0 0 0 0 0 0 0 0 0 0 0 0 0 0 0 0 0 0 0 0 0 0 0 0
0 0 0 0 0 0 0 0 0 0 0 0 0 0 0 0 0 0 0 0 0 0 0 0 0 0 0 0 0 0 0 0 0 0 0 0 0 0 0 0 0 0 0 0
0 0 0 0 0 0 0 0 0 0 0 0 0 0 0 0 0 0 0 0 0 0 0 0 0 0 0 0 0 0 0 0 0 0 0 0 0 0 0 0 0 -0 -0 -0
0 0 0 0 0 0 0 0 0 0 0 0 0 0 0 0 0 0 0 0 0 0 0 0 0 0 0 0 0 0 0 0 0 0 0 0 0 0 0 -0 -0 -0 -0 0
0 0 0 0 0 0 0 0 0 0 0 0 0 0 0 0 0 0 0 0 0 0 0 0 0 0 0 0 0 0 0 0 0 0 0 0 0 0 0 -0 0 0 0 0
0 0 0 0 0 0 0 0 0 0 0 0 0 0 0 0 0 0 0 0 0 0 0 0 0 0 0 0 0 0 0 0 0 0 0 0 0 0 0 0 0 0 0 0
0 0 0 0 0 0 0 0 0 0 0 0 0 0 0 0 0 0 0 0 0 0 0 0 0 0 0 0 -0 -0 0 0 0 0 0 0 0 0 0 0 0 0 -0 -0
0 0 0 0 0 0 0 0 0 0 0 0 0 0 0 0 0 0 0 0 0 0 0 0 0 0 0 0 0 0 0 0 0 0 0 0 0 0 0 0 0 0 -0 -0
0 0 0 0 0 0 0 0 0 0 0 0 0 0 0 0 0 0 0 0 0 0 0 0 0 0 0 0 0 0 0 0 0 0 0 0 0 0 0 0 0 0 -0 0
0 0 0 0 0 0 0 0 0 0 0 0 0 0 0 0 0 0 0 0 0 0 0 0 0 0 -0 -0 -0 0 0 0 0 0 0 0 0 0 0 0 0 0 0 0
0 0 0 0 0 0 0 0 0 0 0 0 0 0 0 0 0 0 0 0 0 0 0 0 0 0 -0 -0 -0 -0 -0 0 0 0 -0 -0 -0 0 0 0 0 0 0 0
0 0 0 0 0 0 0 0 0 0 0 0 0 0 0 0 0 0 0 0 0 0 0 0 0 0 0 -0 -0 -0 -0 -0 -0 -0 -0 -0 -0 -0 -0 0 0 0 0 0
0 0 0 0 0 0 0 0 0 0 0 0 0 0 0 0 0 0 0 0 0 0 0 0 0 0 0 -0 -0 -0 -0 -0 -0 -0 -0 -0 -0 -0 -0 -0 0 0 0 0
Wind_Speed
2 1 5 9 10 10 8 7 10 12 8 1 4 5 6 7 11 12 10 10 11 10 9 9 9 9 8 7 5 2 3 4 4 5 5 5 4 4 4 4 6 5 5 5
4 6 14 12 10 8 8 8 9 9 5 2 7 8 8 10 11 11 11 11 11 11 11 11 10 8 7 7 5 1 0 4 3 3 4 4 5 5 5 5 7 7 7 6
8 10 8 6 8 7 8 6 6 5 3 4 6 5 6 7 11 12 12 11 11 11 10 10 10 8 6 6 5 3 2 4 4 6 7 7 5 5 5 6 6 8 8 8
5 6 5 6 6 4 6 6 3 3 2 2 2 2 1 5 8 10 10 11 11 10 10 10 10 9 7 7 6 6 4 6 6 5 7 9 7 6 5 5 6 7 9 9
5 4 5 5 6 4 6 5 2 2 1 1 2 3 2 4 5 7 9 10 10 10 10 10 10 8 8 8 7 6 7 8 7 7 8 9 9 8 7 6 8 8 8 9
5 4 3 4 4 3 2 4 6 5 4 1 2 3 3 1 5 8 9 10 10 9 10 10 9 9 9 9 9 9 10 10 9 9 10 11 12 10 10 8 8 7 6 7
6 6 3 1 4 6 4 6 5 5 4 3 2 3 1 4 8 11 11 10 10 10 10 10 10 11 10 11 10 10 11 11 10 11 11 11 12 11 10 9 8 8 7 6
2 6 4 2 1 2 1 6 6 3 3 3 3 3 4 8 12 12 11 11 10 10 10 10 10 10 10 10 10 10 10 10 10 11 11 11 11 9 8 9 8 8 7 7
2 5 5 4 2 1 0 1 6 6 2 1 1 3 4 7 10 10 10 10 10 9 9 10 10 10 10 9 10 9 10 12 11 11 12 12 11 11 11 10 9 7 7 7
4 3 5 4 4 3 3 2 5 5 3 0 0 2 4 7 8 8 8 9 9 8 9 9 9 10 9 9 10 10 11 12 12 11 10 11 11 11 10 9 9 9 8 7
3 2 5 4 3 2 4 4 4 4 3 4 1 2 1 7 10 10 9 8 9 9 8 8 8 8 9 9 9 10 11 11 11 11 11 11 11 10 10 9 9 8 7 7
2 4 2 3 3 1 4 2 4 4 1 2 2 1 3 6 9 11 11 10 9 10 9 8 9 9 9 9 9 9 10 10 10 10 10 10 10 9 9 9 8 7 7 6
4 5 3 6 7 6 3 2 3 5 4 2 3 1 4 8 9 9 10 10 9 10 10 9 8 9 8 8 8 9 9 9 9 9 9 9 9 8 8 7 6 6 6 6
6 4 4 4 3 1 2 3 3 4 3 3 3 6 6 8 9 9 9 9 9 9 9 9 8 8 8 7 7 8 8 7 8 8 9 8 7 7 6 6 5 5 6 6
5 3 1 1 1 3 4 4 5 4 4 5 5 6 7 8 9 9 9 10 10 10 10 9 8 7 7 7 7 7 7 6 7 8 8 6 6 6 6 5 5 5 5 6
4 3 2 2 3 6 8 7 7 6 6 7 7 3 5 8 8 9 9 10 10 10 10 10 9 8 7 7 6 6 6 5 6 7 7 6 5 6 5 5 5 5 5 5
2 3 3 1 1 4 4 2 4 5 3 4 4 4 9 8 8 9 10 10 10 10 10 9 9 7 7 6 5 5 5 5 6 6 6 5 5 5 4 5 5 4 4 4
5 4 3 1 3 3 1 3 9 8 5 4 5 8 8 8 7 6 7 9 10 10 10 8 7 7 6 5 5 4 5 5 5 5 5 4 4 5 4 4 4 3 3 3
6 6 3 3 3 2 1 2 5 6 3 3 8 9 9 9 8 5 5 7 8 9 9 7 6 6 6 5 5 5 5 5 5 5 4 4 5 4 4 4 3 2 2 2
3 5 4 3 3 2 2 1 5 9 3 2 7 10 10 7 5 4 6 9 10 9 8 7 6 6 5 4 5 6 6 5 5 4 4 4 4 4 3 2 1 1 2 1
2 3 3 3 3 1 2 1 2 2 5 5 7 9 8 4 4 8 10 10 10 10 8 8 7 6 4 4 6 6 5 4 3 4 3 3 3 2 2 1 1 1 2 2
4 3 2 3 3 3 4 3 3 4 4 7 7 7 8 10 13 12 12 11 11 9 8 7 7 5 4 5 6 6 4 2 3 3 3 3 2 1 2 2 2 2 3 3
3 5 5 4 4 3 1 4 4 7 8 6 7 10 14 13 12 11 10 10 9 8 7 6 7 6 4 4 5 4 2 2 3 3 2 2 2 2 2 3 3 3 3 3
2 4 6 5 4 4 6 7 7 9 10 10 12 13 13 13 12 11 10 8 8 7 6 6 6 5 4 3 4 3 2 2 2 2 1 1 2 2 3 3 3 3 3 3
5 5 6 5 6 7 5 7 10 12 14 14 12 11 12 13 12 10 9 8 7 6 5 5 5 5 4 4 3 2 2 2 2 1 0 1 1 2 2 3 2 2 1 2
2 7 8 8 10 8 7 8 13 15 14 14 13 11 10 10 11 9 8 7 6 6 5 5 5 5 4 3 2 2 2 2 2 1 0 0 1 2 2 2 2 2 1 1
Wind_Direction
278 96 246 241 222 220 244 263 275 277 279 122 142 96 51 61 75 82 84 87 85 75 67 65 76 78 77 70 70 82 157 165 151 141 140 131 131 110 89 73 68 66 69 76
343 261 244 246 250 241 250 264 274 289 313 73 114 92 68 61 69 80 84 82 82 80 70 61 59 63 68 78 82 87 18 146 136 136 128 123 117 93 82 71 63 56 59 61
224 250 263 270 278 272 264 239 251 272 345 54 98 61 75 69 77 72 70 71 69 73 72 65 56 46 53 62 66 74 51 92 105 106 104 103 96 87 75 64 61 49 57 61
252 268 301 309 292 267 280 263 228 265 2 291 100 129 133 106 88 80 74 69 66 61 62 60 55 42 37 47 56 58 60 77 79 91 113 120 113 105 88 84 78 64 58 61
270 285 303 292 283 277 257 278 271 257 221 350 22 112 240 130 107 99 86 79 73 65 60 56 49 43 40 41 48 56 59 65 71 81 97 107 104 102 103 95 84 73 61 58
264 273 249 253 289 286 289 6 5 30 64 356 267 142 242 221 142 118 94 81 74 67 61 55 49 44 44 44 47 53 60 57 59 73 86 99 106 110 110 102 92 79 68 59
321 314 299 303 340 336 45 69 28 4 10 270 315 96 26 46 97 107 101 87 76 67 60 52 47 46 43 43 47 54 63 61 61 71 79 89 98 102 102 99 95 91 78 67
311 304 302 325 206 253 287 128 149 187 228 287 7 74 67 81 91 92 93 90 79 69 62 56 49 49 47 47 51 56 65 68 68 72 76 82 87 90 89 88 90 89 87 79
198 275 297 294 287 154 341 153 166 141 153 77 28 109 111 101 99 99 96 90 83 75 68 64 57 53 51 51 55 59 67 70 70 76 81 79 81 86 91 88 85 85 84 84
156 266 301 316 19 14 142 144 80 95 123 184 326 168 173 159 135 120 110 104 96 85 75 69 64 61 59 58 59 61 68 73 73 74 79 84 82 84 86 87 85 82 79 77
124 146 315 0 28 338 25 49 85 99 129 138 202 280 252 165 148 137 123 113 108 99 90 82 75 70 67 64 64 65 68 73 75 76 80 82 82 82 83 84 84 84 81 75
120 113 321 299 293 75 109 139 128 127 142 133 151 269 13 129 129 128 124 117 108 101 96 90 85 80 74 72 70 71 71 74 77 80 81 82 83 84 84 83 80 79 79 75
120 96 40 353 353 8 37 25 98 120 117 144 154 173 91 110 117 123 123 119 110 105 101 94 87 84 81 78 78 78 77 80 83 84 86 85 83 83 82 81 80 79 80 77
111 102 146 175 223 273 28 37 78 112 127 155 157 144 141 134 133 130 126 123 114 108 107 102 94 88 86 83 85 85 82 85 89 88 86 85 84 86 84 81 77 77 81 81
96 103 189 203 125 106 92 75 72 92 132 144 149 147 164 158 148 139 134 128 122 118 116 110 104 99 93 89 86 87 88 88 93 92 89 87 85 84 81 77 74 73 78 87
88 112 73 35 88 91 77 64 75 70 78 107 117 106 129 127 127 135 140 139 135 130 126 120 115 109 102 100 100 97 97 96 98 97 97 95 88 84 84 84 80 79 79 82
107 109 88 356 77 73 49 48 93 93 90 128 148 149 136 133 143 149 151 148 142 134 129 125 121 117 113 109 109 109 108 104 101 102 101 96 93 89 86 89 83 82 83 89
132 113 118 118 51 71 279 98 109 99 72 84 111 133 140 134 123 119 136 142 140 136 130 125 123 120 116 112 107 107 105 103 100 99 98 97 96 92 86 83 80 78 87 98
139 134 116 106 102 125 141 146 140 120 86 102 125 129 122 115 97 87 108 125 131 129 127 125 124 123 116 112 110 106 103 100 99 100 102 102 100 95 89 87 81 82 93 98
86 98 110 116 124 176 249 294 128 107 123 160 139 143 144 135 131 149 130 118 117 115 117 117 113 106 106 106 103 99 96 97 101 105 104 100 100 99 97 102 96 85 107 123
48 48 91 115 116 173 305 261 119 143 200 166 150 151 153 148 137 130 120 113 117 116 116 113 109 104 105 107 102 99 98 100 107 102 97 92 96 113 115 91 67 73 72 74
143 122 102 109 119 233 312 53 121 170 126 128 130 132 122 113 112 116 117 118 120 118 116 115 111 105 98 98 102 102 105 110 97 95 91 87 95 102 96 82 57 53 62 60
117 157 143 136 177 219 57 103 118 120 116 115 117 123 124 121 122 121 121 123 123 123 122 118 118 113 103 103 107 110 123 107 93 88 75 71 77 69 78 92 81 61 58 65
114 112 99 94 117 110 98 96 95 105 110 115 122 125 125 123 125 123 125 126 125 125 128 126 123 120 122 126 121 135 138 111 97 95 72 70 83 70 69 79 90 90 78 76
166 113 98 104 135 105 96 113 114 108 111 113 115 119 124 126 127 128 128 129 130 131 131 131 134 139 143 143 147 163 152 122 103 97 61 58 93 115 105 85 83 110 124 153
184 148 150 180 179 148 149 139 126 122 124 126 123 118 119 125 128 126 128 131 131 131 131 133 140 144 150 155 172 200 195 150 132 118 131 175 141 144 143 124 67 43 142 136